TimeEDT,TemperatureF,Dew PointF,Humidity,Sea Level PressureIn,VisibilityMPH,Wind Direction,Wind SpeedMPH,Gust SpeedMPH,PrecipitationIn,Events,Conditions,WindDirDegrees,DateUTC
12:15 AM,66.2,64.4,94,30.20,7.0,West,11.5,-,N/A,,Clear,270,2013-08-28 04:15:00
12:35 AM,66.2,64.4,94,30.20,7.0,West,13.8,-,N/A,,Clear,280,2013-08-28 04:35:00
12:55 AM,66.2,64.4,94,30.19,7.0,West,11.5,-,N/A,,Clear,270,2013-08-28 04:55:00
1:15 AM,66.2,64.4,94,30.18,7.0,West,12.7,17.3,N/A,,Clear,270,2013-08-28 05:15:00
1:35 AM,66.2,64.4,94,30.18,5.0,West,12.7,-,N/A,,Clear,270,2013-08-28 05:35:00
1:55 AM,66.2,66.2,100,30.17,5.0,West,11.5,-,N/A,,Clear,270,2013-08-28 05:55:00
2:15 AM,66.2,66.2,100,30.17,4.0,WNW,12.7,-,N/A,,Scattered Clouds,290,2013-08-28 06:15:00
2:35 AM,64.4,64.4,100,30.17,2.5,West,11.5,-,N/A,,Overcast,280,2013-08-28 06:35:00
2:55 AM,64.4,64.4,100,30.16,2.5,West,13.8,18.4,N/A,,Overcast,280,2013-08-28 06:55:00
3:15 AM,64.4,64.4,100,30.15,1.5,West,12.7,-,N/A,,Overcast,270,2013-08-28 07:15:00
3:35 AM,66.2,66.2,100,30.16,1.8,West,12.7,-,N/A,,Overcast,270,2013-08-28 07:35:00
3:55 AM,66.2,66.2,100,30.15,1.8,West,9.2,-,N/A,,Overcast,270,2013-08-28 07:55:00
4:15 AM,66.2,66.2,100,30.15,2.0,West,8.1,-,N/A,,Overcast,270,2013-08-28 08:15:00
4:35 AM,66.2,66.2,100,30.14,0.5,WSW,10.4,16.1,N/A,Fog,Fog,250,2013-08-28 08:35:00
4:55 AM,66.2,66.2,100,30.14,0.2,West,10.4,-,N/A,Fog,Fog,260,2013-08-28 08:55:00
5:15 AM,66.2,66.2,100,30.14,0.8,West,11.5,-,N/A,,Overcast,260,2013-08-28 09:15:00
5:35 AM,66.2,66.2,100,30.14,1.2,West,12.7,-,N/A,,Overcast,270,2013-08-28 09:35:00
5:55 AM,66.2,66.2,100,30.14,1.0,West,12.7,-,N/A,,Overcast,270,2013-08-28 09:55:00
6:15 AM,66.2,66.2,100,30.14,0.2,West,13.8,-,N/A,Fog,Fog,260,2013-08-28 10:15:00
6:35 AM,66.2,66.2,100,30.15,0.2,West,12.7,-,N/A,Fog,Fog,270,2013-08-28 10:35:00
6:55 AM,66.2,66.2,100,30.16,0.2,West,12.7,-,0.02,Rain,Rain,270,2013-08-28 10:55:00
7:15 AM,66.2,66.2,100,30.16,0.2,West,8.1,-,0.07,Rain,Rain,280,2013-08-28 11:15:00
7:35 AM,66.2,66.2,100,30.16,0.2,West,8.1,-,0.16,Rain,Heavy Rain,280,2013-08-28 11:35:00
7:55 AM,64.4,64.4,100,30.17,0.2,West,9.2,18.4,0.29,Rain,Heavy Rain,280,2013-08-28 11:55:00
8:15 AM,64.4,64.4,100,30.17,0.5,West,10.4,-,0.65,Rain,Heavy Rain,260,2013-08-28 12:15:00
8:35 AM,64.4,64.4,100,30.17,7.0,WSW,9.2,-,0.77,Rain,Light Rain,250,2013-08-28 12:35:00
8:55 AM,64.4,64.4,100,30.17,4.0,West,6.9,-,0.02,Rain,Light Rain,260,2013-08-28 12:55:00
9:15 AM,66.2,66.2,100,30.17,4.0,West,10.4,-,0.04,Rain,Rain,270,2013-08-28 13:15:00
9:35 AM,66.2,66.2,100,30.17,0.2,West,11.5,-,0.05,Rain,Light Rain,260,2013-08-28 13:35:00
9:55 AM,66.2,66.2,100,30.17,0.2,WSW,11.5,-,N/A,Rain,Light Rain,250,2013-08-28 13:55:00
10:15 AM,66.2,66.2,100,30.17,0.2,West,12.7,18.4,N/A,Rain,Light Rain,260,2013-08-28 14:15:00
10:35 AM,66.2,66.2,100,30.17,0.2,West,11.5,-,N/A,Rain,Light Rain,260,2013-08-28 14:35:00
10:55 AM,66.2,66.2,100,30.16,0.2,West,10.4,-,N/A,Rain,Light Rain,260,2013-08-28 14:55:00
11:15 AM,66.2,66.2,100,30.16,0.2,West,12.7,-,N/A,Rain,Light Rain,260,2013-08-28 15:15:00
11:35 AM,66.2,66.2,100,30.15,0.2,West,11.5,18.4,N/A,Rain,Light Rain,270,2013-08-28 15:35:00
11:55 AM,66.2,66.2,100,30.15,0.2,West,13.8,-,N/A,Rain,Light Rain,260,2013-08-28 15:55:00
12:15 PM,66.2,66.2,100,30.14,0.2,West,13.8,-,N/A,Rain,Light Rain,260,2013-08-28 16:15:00
12:35 PM,66.2,66.2,100,30.13,0.2,West,13.8,-,N/A,Rain,Light Rain,260,2013-08-28 16:35:00
12:55 PM,66.2,66.2,100,30.13,0.2,West,13.8,-,N/A,Rain,Light Rain,260,2013-08-28 16:55:00
1:15 PM,69.8,69.8,100,30.13,0.2,West,12.7,-,N/A,Rain,Light Rain,260,2013-08-28 17:15:00
1:35 PM,69.8,69.8,100,30.13,1.2,West,12.7,17.3,N/A,Rain,Light Rain,260,2013-08-28 17:35:00
1:55 PM,69.8,69.8,100,30.13,2.5,West,12.7,-,N/A,,Overcast,270,2013-08-28 17:55:00
2:15 PM,69.8,69.8,100,30.12,5.0,West,11.5,-,N/A,,Overcast,260,2013-08-28 18:15:00
2:35 PM,71.6,69.8,94,30.11,5.0,West,13.8,17.3,N/A,,Overcast,260,2013-08-28 18:35:00
2:55 PM,71.6,69.8,94,30.10,7.0,West,15.0,19.6,N/A,,Overcast,260,2013-08-28 18:55:00
3:15 PM,73.4,68.0,83,30.09,7.0,West,15.0,23.0,N/A,,Overcast,260,2013-08-28 19:15:00
3:35 PM,73.4,69.8,88,30.09,7.0,West,13.8,-,N/A,,Mostly Cloudy,260,2013-08-28 19:35:00
3:55 PM,71.6,68.0,88,30.08,7.0,West,13.8,19.6,N/A,,Mostly Cloudy,260,2013-08-28 19:55:00
4:15 PM,71.6,69.8,94,30.08,7.0,West,13.8,-,N/A,,Overcast,260,2013-08-28 20:15:00
4:35 PM,73.4,69.8,88,30.07,7.0,West,11.5,20.7,N/A,,Mostly Cloudy,260,2013-08-28 20:35:00
4:55 PM,71.6,69.8,94,30.07,7.0,WSW,15.0,-,N/A,,Mostly Cloudy,250,2013-08-28 20:55:00
5:15 PM,73.4,68.0,83,30.07,7.0,WSW,15.0,-,N/A,Thunderstorm,Mostly Cloudy,250,2013-08-28 21:15:00
5:35 PM,73.4,68.0,83,30.06,10.0,West,16.1,20.7,N/A,Thunderstorm,Mostly Cloudy,260,2013-08-28 21:35:00
5:55 PM,71.6,66.2,83,30.07,10.0,West,18.4,24.2,N/A,,Mostly Cloudy,260,2013-08-28 21:55:00
6:15 PM,71.6,66.2,83,30.07,7.0,West,19.6,25.3,N/A,Rain,Rain,260,2013-08-28 22:15:00
6:35 PM,69.8,68.0,94,30.06,7.0,West,16.1,24.2,N/A,Rain-Thunderstorm,Light Thunderstorms and Rain,270,2013-08-28 22:35:00
6:55 PM,68.0,66.2,94,30.06,5.0,West,17.3,-,N/A,,Scattered Clouds,260,2013-08-28 22:55:00
7:15 PM,68.0,66.2,94,30.05,10.0,West,18.4,23.0,N/A,Thunderstorm,Scattered Clouds,260,2013-08-28 23:15:00
7:35 PM,68.0,66.2,94,30.05,7.0,West,11.5,21.9,N/A,,Mostly Cloudy,270,2013-08-28 23:35:00
7:55 PM,68.0,68.0,100,30.07,7.0,West,13.8,-,N/A,Thunderstorm,Overcast,270,2013-08-28 23:55:00
8:15 PM,68.0,68.0,100,30.07,7.0,West,16.1,23.0,N/A,Thunderstorm,Overcast,270,2013-08-29 00:15:00
8:35 PM,66.2,66.2,100,30.07,4.0,West,19.6,23.0,0.02,Rain-Thunderstorm,Light Thunderstorms and Rain,280,2013-08-29 00:35:00
8:55 PM,66.2,66.2,100,30.07,4.0,West,18.4,24.2,N/A,Rain-Thunderstorm,Light Thunderstorms and Rain,270,2013-08-29 00:55:00
9:15 PM,68.0,68.0,100,30.09,4.0,West,13.8,-,0.01,Rain-Thunderstorm,Light Thunderstorms and Rain,270,2013-08-29 01:15:00
9:35 PM,66.2,66.2,100,30.09,0.5,West,13.8,-,0.13,Rain-Thunderstorm,Light Thunderstorms and Rain,280,2013-08-29 01:35:00
9:55 PM,66.2,66.2,100,30.10,0.2,WNW,12.7,18.4,0.24,Rain-Thunderstorm,Heavy Thunderstorms and Rain,290,2013-08-29 01:55:00
10:15 PM,66.2,66.2,100,30.10,0.2,West,12.7,19.6,0.44,Rain,Rain,280,2013-08-29 02:15:00
10:35 PM,66.2,66.2,100,30.10,0.2,West,11.5,-,0.45,Rain,Rain,280,2013-08-29 02:35:00
10:55 PM,66.2,66.2,100,30.09,0.2,West,12.7,-,N/A,Rain,Light Rain,270,2013-08-29 02:55:00
11:15 PM,66.2,66.2,100,30.08,0.2,West,11.5,-,N/A,Rain,Rain,280,2013-08-29 03:15:00
11:35 PM,66.2,66.2,100,30.07,0.2,West,11.5,18.4,N/A,Rain,Light Rain,280,2013-08-29 03:35:00
11:55 PM,66.2,66.2,100,30.07,0.2,West,13.8,-,N/A,Rain,Rain,270,2013-08-29 03:55:00